This demonstration page uses our WeatherBlox Daily Observations layout. Learn more.

Left ArrowRight Arrow

44.8408, -93.29828

Hourly Observations for March 1, 2015

Temp ( °F °C ) Dew Point ( °F °C ) Humidity (%) Winds ( mph kmh ) Pressure ( in mb ) Visibility ( mi km ) Precip ( " mm )
12:53 am 00:53 Cloudy 14 -10 7 -13.9 73 73 S 9 15 30.34 1027 9 14 0.00 0.00
1:53 am 01:53 Cloudy 15 -9.4 8 -13.3 74 74 S 9 15 30.33 1027 8 13 0.00 0.00
2:53 am 02:53 Cloudy with Haze 16 -8.9 10 -12.2 77 77 S 7 11 30.29 1026 6 10 0.00 0.03
3:53 am 03:53 Cloudy 16 -8.9 10 -12.2 77 77 SSW 9 15 30.29 1026 8 13 0.00 0.00
4:00 am 04:00 Mostly Cloudy 16 -9 10 -12 79 79 SSW 7 11 30.30 1026 8 13 0.00 0.00
4:53 am 04:53 Cloudy 16 -8.9 10 -12.2 77 77 SW 14 22 30.29 1026 8 13 0.00 0.00
5:53 am 05:53 Cloudy 16 -8.9 10 -12.2 77 77 SW 8 13 30.29 1026 8 13 0.00 0.00
6:53 am 06:53 Cloudy 16 -8.9 10 -12.2 77 77 WSW 9 15 30.28 1026 9 14 0.00 0.00
7:53 am 07:53 Cloudy 16 -8.9 11 -11.7 80 80 WSW 9 15 30.29 1026 7 11 0.00 0.00
8:45 am 08:45 Mostly Cloudy 16 -8.9 8 -13.3 71 71 W 14 22 30.30 1026 9 14 0.00 0.00
8:53 am 08:53 Mostly Cloudy 17 -8.3 8 -13.3 68 68 W 13 20 30.31 1026 10 16 0.00 0.00
9:53 am 09:53 Mostly Cloudy 18 -7.8 6 -14.4 59 59 W 16 26 30.32 1027 10 16 0.00 0.00
10:53 am 10:53 Mostly Cloudy 19 -7.2 5 -15 54 54 W 12 19 30.32 1027 10 16 0.00 0.00
11:53 am 11:53 Mostly Sunny 22 -5.6 5 -15 48 48 W 15 24 30.32 1027 10 16 0.00 0.00
1:53 pm 13:53 Partly Cloudy 25 -3.9 7 -13.9 46 46 W 17 28 30.28 1025 10 16 0.00 0.00
2:53 pm 14:53 Mostly Cloudy 26 -3.3 8 -13.3 46 46 W 17 28 30.27 1025 10 16 0.00 0.00
3:53 pm 15:53 Mostly Cloudy 28 -2.2 9 -12.8 44 44 W 18 30 30.28 1025 10 16 0.00 0.00
4:53 pm 16:53 Partly Cloudy 27 -2.8 10 -12.2 49 49 W 16 26 30.27 1025 10 16 0.00 0.00
5:53 pm 17:53 Mostly Cloudy 27 -2.8 13 -10.6 55 55 W 15 24 30.28 1025 10 16 0.00 0.00
6:53 pm 18:53 Partly Cloudy 25 -3.9 14 -10 63 63 W 12 19 30.31 1026 10 16 0.00 0.03
7:53 pm 19:53 Partly Cloudy 25 -3.9 12 -11.1 58 58 WNW 14 22 30.33 1027 10 16 0.00 0.00
8:53 pm 20:53 Mostly Cloudy 24 -4.4 12 -11.1 60 60 WNW 18 30 30.35 1028 10 16 0.00 0.00
9:36 pm 21:36 Cloudy 23 -5 12 -11 63 63 WNW 13 20 30.39 1029 10 16 0.00 0.00
9:53 pm 21:53 Cloudy 22 -5.6 11 -11.7 63 63 WNW 20 31 30.37 1029 10 16 0.00 0.00
10:30 pm 22:30 Mostly Cloudy 21 -6.1 10 -12.2 62 62 WNW 13 20 30.42 1030 10 16 0.00 0.00
10:53 pm 22:53 Mostly Cloudy 20 -6.7 10 -12.2 65 65 WNW 17 28 30.42 1030 10 16 0.00 0.00
11:26 pm 23:26 Cloudy 19 -7 9 -13 63 63 WNW 14 22 30.45 1031 10 16 0.00 0.00
11:53 pm 23:53 Partly Cloudy 19 -7.2 9 -12.8 65 65 WNW 13 20 30.44 1031 10 16 0.00 0.00

Powered by AerisWeather